This is the latest recevied weather packets stored in our database for station/object W1REE. If no packets are shown the sender has not sent any weather packets the latest 10 day(s).
| Time | Temp. | Humidity | Pressure | Rain* | Wind** | Luminosity | Snow |
|---|---|---|---|---|---|---|---|
| 1777642250 | 3.33° C | 84% | 1023.4 hPa | 0 mm | - | 116 W/m² | - |
| 1777641948 | 2.78° C | 86% | 1023.2 hPa | 0 mm | - | 115 W/m² | - |
| 1777641643 | 2.22° C | 88% | 1023.1 hPa | 0 mm | - | 110 W/m² | - |
| 1777641338 | 1.67° C | 90% | 1023 hPa | 0 mm | - | 96 W/m² | - |
| 1777641034 | 1.67° C | 91% | 1023.2 hPa | 0 mm | - | 96 W/m² | - |
| 1777640730 | 1.11° C | 90% | 1023 hPa | 0 mm | - | 90 W/m² | - |
| 1777640427 | 1.11° C | 92% | 1022.9 hPa | 0 mm | - | 53 W/m² | - |
| 1777640124 | 0.56° C | 93% | 1022.8 hPa | 0 mm | - | 34 W/m² | - |
| 1777639821 | 0.56° C | 95% | 1022.8 hPa | 0 mm | - | 28 W/m² | - |
| 1777639518 | 0° C | 96% | 1022.6 hPa | 0 mm | - | 25 W/m² | - |
| 1777639215 | 0° C | 96% | 1022.6 hPa | 0 mm | - | 21 W/m² | - |
| 1777638911 | 0° C | 97% | 1022.8 hPa | 0 mm | - | 18 W/m² | - |
| 1777638606 | 0° C | 97% | 1022.8 hPa | 0 mm | - | 16 W/m² | - |
| 1777638304 | 0° C | 98% | 1022.6 hPa | 0 mm | - | 14 W/m² | - |
| 1777638000 | 0° C | 98% | 1022.5 hPa | 0 mm | - | 12 W/m² | - |
| 1777637696 | 0° C | 98% | 1022.6 hPa | 0 mm | - | 9 W/m² | - |
| 1777637393 | 0° C | 98% | 1022.6 hPa | 0 mm | - | 6 W/m² | - |
| 1777637089 | 0° C | 98% | 1022.6 hPa | 0 mm | - | 4 W/m² | - |
| 1777636785 | 0° C | 99% | 1022.6 hPa | 0 mm | - | 2 W/m² | - |
| 1777636482 | 0° C | 99% | 1022.5 hPa | 0 mm | - | 1 W/m² | - |
| 1777636178 | 0° C | 99% | 1022.4 hPa | 0 mm | - | 1 W/m² | - |
| 1777635873 | 0° C | 99% | 1022.5 hPa | 0 mm | - | 0 W/m² | - |
| 1777635570 | 0° C | 98% | 1022.5 hPa | 0 mm | - | 0 W/m² | - |
| 1777635267 | -0.56° C | 98% | 1022.6 hPa | 0 mm | - | 0 W/m² | - |
| 1777634963 | -0.56° C | 98% | 1022.8 hPa | 0 mm | - | 0 W/m² | - |
* Rain latest hour (hover to see other rain measurements)
** Current wind speed in m/s (hover to see current wind gust speed)